Location: Newark
(36.0000°N, 138.0000°E)
Time: 15:57:52
(UTC+00:00)

N. Korean satellite - Visible Passes

Search period start: 14 October 2019 00:00
Search period end: 24 October 2019 00:00
Orbit: 455 x 508 km, 97.2° (Epoch: 14 October)

Date Brightness Start Highest point End Pass type
(mag) Time Alt. Az. Time Alt. Az. Time Alt. Az.
14 Oct 9.5 19:59:41 10° NE 20:02:30 22° E 20:05:22 10° SSE visible
15 Oct 10.6 19:36:40 10° E 19:37:05 10° E 19:37:31 10° E visible
17 Oct 9.9 08:49:01 10° SW 08:51:21 17° W 08:53:43 10° NW visible
17 Oct 8.4 20:16:42 10° NNE 20:20:05 38° E 20:23:30 10° SSE visible
18 Oct 9.9 19:52:12 10° NE 19:54:42 18° E 19:57:14 10° SE visible
21 Oct 9.5 08:40:47 10° SSW 08:43:29 22° W 08:46:13 10° NW visible
21 Oct 8.9 20:09:01 10° NE 20:12:16 30° E 20:15:32 10° SSE visible
22 Oct 10.2 19:44:48 10° ENE 19:46:51 14° E 19:48:56 10° SE visible
